Terminal Aerodrome Forecast
Issued by NWS Chicago, IL

Home | Current Version | Previous Version | Text Only | Print | Product List | Glossary Off
Versions: 1 2 3 4 5 6 7 8 9 10 11 12 13 14 15 16 17 18 19 20 21 22 23 24 25 26 27 28 29 30

000
FTUS43 KLOT 160538
TAFRFD
TAF
KRFD 160538Z 1606/1706 08004KT P6SM SCT030 BKN250
      TEMPO 1607/1611 4SM BR BCFG
     FM161500 13009KT P6SM BKN050 BKN250
     FM170200 15008KT P6SM VCTS SCT020 BKN100CB PROB30 1702/1706 2SM
      TSRA BKN020CB=

USA.gov is the U.S. government's official web portal to all federal, state and local government web resources and services.